This is the latest recevied weather packets stored in our database for station/object KD2RHT-13. If no packets are shown the sender has not sent any weather packets the latest 10 day(s).
| Time | Temp. | Humidity | Pressure | Rain* | Wind** | Luminosity | Snow |
|---|---|---|---|---|---|---|---|
| 1777642571 | 8.89° C | 68% | 1015.6 hPa | 0 mm | - | 602 W/m² | - |
| 1777642268 | 8.89° C | 68% | 1015.2 hPa | 0 mm | - | 576 W/m² | - |
| 1777641965 | 9.44° C | 69% | 1015.2 hPa | 0 mm | - | 543 W/m² | - |
| 1777641660 | 9.44° C | 68% | 1015.2 hPa | 0 mm | - | 501 W/m² | - |
| 1777641051 | 8.33° C | 70% | 1015.2 hPa | 0 mm | - | 442 W/m² | - |
| 1777639838 | 8.33° C | 72% | 1015.2 hPa | 0 mm | - | 353 W/m² | - |
| 1777638017 | 7.22° C | 78% | 1015.2 hPa | 0 mm | - | 263 W/m² | - |
| 1777637714 | 7.78° C | 76% | 1015.6 hPa | 0 mm | - | 252 W/m² | - |
| 1777637405 | 7.22° C | 78% | 1015.2 hPa | 0 mm | - | 226 W/m² | - |
| 1777637102 | 7.22° C | 80% | 1015.2 hPa | 0 mm | - | 210 W/m² | - |
| 1777636797 | 7.22° C | 80% | 1015.6 hPa | 0 mm | - | 193 W/m² | - |
| 1777635582 | 6.67° C | 82% | 1015.2 hPa | 0 mm | - | 166 W/m² | - |
| 1777635278 | 6.11° C | 85% | 1015.2 hPa | 0 mm | - | 110 W/m² | - |
| 1777634975 | 6.11° C | 85% | 1015.2 hPa | 0 mm | - | 339 W/m² | - |
| 1777634672 | 5.56° C | 90% | 1015.2 hPa | 0 mm | - | 122 W/m² | - |
| 1777634369 | 5° C | 97% | 1015.2 hPa | 0 mm | - | 95 W/m² | - |
| 1777634065 | 5° C | 98% | 1014.9 hPa | 0 mm | - | 78 W/m² | - |
| 1777633762 | 3.89° C | 99% | 1014.9 hPa | 0 mm | - | 56 W/m² | - |
| 1777633460 | 3.33° C | 99% | 1014.9 hPa | 0 mm | - | 45 W/m² | - |
| 1777633157 | 1.67° C | 99% | 1014.9 hPa | 0 mm | - | 39 W/m² | - |
| 1777632549 | 1.11° C | 99% | 1014.9 hPa | 0 mm | - | 24 W/m² | - |
| 1777631944 | 1.11° C | 99% | 1014.9 hPa | 0 mm | - | 20 W/m² | - |
| 1777631643 | 0.56° C | 99% | 1014.9 hPa | 0 mm | - | 18 W/m² | - |
| 1777631339 | 0.56° C | 99% | 1014.9 hPa | 0 mm | - | 16 W/m² | - |
| 1777631036 | 0.56° C | 99% | 1014.5 hPa | 0 mm | - | 12 W/m² | - |
* Rain latest hour (hover to see other rain measurements)
** Current wind speed in m/s (hover to see current wind gust speed)